Time,TemperatureF,DewpointF,PressureIn,WindDirection,WindDirectionDegrees,WindSpeedMPH,WindSpeedGustMPH,Humidity,HourlyPrecipIn,Conditions,Clouds,dailyrainin,SoftwareType,DateUTC
2014-01-07 00:01:00,-6.2,-12.6,30.55,SW,222,0.0,8.0,73,0.00,,SKC,0.00,VWS V12.07,2014-01-07 06:01:00,
2014-01-07 00:08:00,-6.8,-13.2,30.56,SW,231,0.0,3.0,73,0.00,,SKC,0.00,VWS V12.07,2014-01-07 06:08:00,
2014-01-07 00:13:00,-7.3,-13.6,30.56,SW,225,0.0,3.0,73,0.00,,SKC,0.00,VWS V12.07,2014-01-07 06:13:00,
2014-01-07 00:19:00,-7.6,-13.7,30.56,South,172,0.0,3.0,74,0.00,,SKC,0.00,VWS V12.07,2014-01-07 06:19:00,
2014-01-07 00:25:00,-7.8,-13.6,30.55,SW,219,0.0,3.0,75,0.00,,SKC,0.00,VWS V12.07,2014-01-07 06:25:00,
2014-01-07 00:31:00,-8.0,-13.8,30.55,SW,219,0.0,0.0,75,0.00,,SKC,0.00,VWS V12.07,2014-01-07 06:31:00,
2014-01-07 00:37:00,-8.1,-13.6,30.54,SW,218,0.0,1.0,76,0.00,,SKC,0.00,VWS V12.07,2014-01-07 06:37:00,
2014-01-07 00:44:00,-8.3,-13.8,30.54,SW,214,0.0,1.0,76,0.00,,SKC,0.00,VWS V12.07,2014-01-07 06:44:00,
2014-01-07 00:49:00,-8.3,-13.6,30.53,SW,221,0.0,2.0,77,0.00,,SKC,0.00,VWS V12.07,2014-01-07 06:49:00,
2014-01-07 00:56:00,-8.3,-13.6,30.54,SW,224,0.0,2.0,77,0.00,,SKC,0.00,VWS V12.07,2014-01-07 06:56:00,
2014-01-07 01:01:00,-8.4,-13.7,30.54,SW,224,0.0,0.0,77,0.00,,SKC,0.00,VWS V12.07,2014-01-07 07:01:00,
2014-01-07 01:07:00,-8.5,-13.8,30.54,SSW,211,0.0,1.0,77,0.00,,SKC,0.00,VWS V12.07,2014-01-07 07:07:00,
2014-01-07 01:13:00,-8.6,-13.9,30.54,SSW,212,0.0,1.0,77,0.00,,SKC,0.00,VWS V12.07,2014-01-07 07:13:00,
2014-01-07 01:19:00,-8.6,-13.6,30.55,SW,219,0.0,1.0,78,0.00,,SKC,0.00,VWS V12.07,2014-01-07 07:19:00,
2014-01-07 01:25:00,-8.7,-13.7,30.54,SW,221,0.0,1.0,78,0.00,,SKC,0.00,VWS V12.07,2014-01-07 07:25:00,
2014-01-07 01:31:00,-8.7,-13.7,30.54,SW,222,0.0,0.0,78,0.00,,SKC,0.00,VWS V12.07,2014-01-07 07:31:00,
2014-01-07 01:37:00,-8.8,-13.8,30.54,SW,230,0.0,1.0,78,0.00,,SKC,0.00,VWS V12.07,2014-01-07 07:37:00,
2014-01-07 01:43:00,-8.8,-13.8,30.54,WSW,240,0.0,3.0,78,0.00,,SKC,0.00,VWS V12.07,2014-01-07 07:43:00,
2014-01-07 01:49:00,-8.8,-13.8,30.54,SW,224,0.0,3.0,78,0.00,,SKC,0.00,VWS V12.07,2014-01-07 07:49:00,
2014-01-07 01:55:00,-8.6,-13.6,30.54,WNW,293,0.0,3.0,78,0.00,,SKC,0.00,VWS V12.07,2014-01-07 07:55:00,
2014-01-07 02:01:00,-8.5,-13.5,30.54,South,186,0.0,0.0,78,0.00,,SKC,0.00,VWS V12.07,2014-01-07 08:01:00,
2014-01-07 02:07:00,-8.4,-13.4,30.53,SW,215,0.0,3.0,78,0.00,,SKC,0.00,VWS V12.07,2014-01-07 08:07:00,
2014-01-07 02:13:00,-8.2,-13.5,30.54,SSW,210,0.0,3.0,77,0.00,,SKC,0.00,VWS V12.07,2014-01-07 08:13:00,
2014-01-07 02:19:00,-8.1,-13.4,30.55,SSW,198,0.0,3.0,77,0.00,,SKC,0.00,VWS V12.07,2014-01-07 08:19:00,
2014-01-07 02:25:00,-8.0,-13.3,30.55,SSW,197,0.0,4.0,77,0.00,,SKC,0.00,VWS V12.07,2014-01-07 08:25:00,
2014-01-07 02:31:00,-7.8,-13.1,30.55,WSW,245,0.0,1.0,77,0.00,,SKC,0.00,VWS V12.07,2014-01-07 08:31:00,
2014-01-07 02:37:00,-7.6,-12.9,30.55,SW,221,0.0,3.0,77,0.00,,SKC,0.00,VWS V12.07,2014-01-07 08:37:00,
2014-01-07 02:43:00,-7.7,-13.2,30.55,SW,226,0.0,3.0,76,0.00,,SKC,0.00,VWS V12.07,2014-01-07 08:43:00,
2014-01-07 02:49:00,-7.8,-13.3,30.55,South,170,0.0,3.0,76,0.00,,SKC,0.00,VWS V12.07,2014-01-07 08:49:00,
2014-01-07 02:55:00,-8.0,-13.5,30.55,WSW,242,0.0,3.0,76,0.00,,SKC,0.00,VWS V12.07,2014-01-07 08:55:00,
2014-01-07 03:01:00,-8.1,-13.4,30.55,SSW,201,0.0,3.0,77,0.00,,SKC,0.00,VWS V12.07,2014-01-07 09:01:00,
2014-01-07 03:07:00,-7.9,-13.2,30.55,SSW,200,0.0,3.0,77,0.00,,SKC,0.00,VWS V12.07,2014-01-07 09:07:00,
2014-01-07 03:13:00,-7.5,-12.8,30.55,SSW,198,1.0,3.0,77,0.00,,SKC,0.00,VWS V12.07,2014-01-07 09:13:00,
2014-01-07 03:19:00,-7.2,-12.5,30.55,SSW,211,0.0,5.0,77,0.00,,SKC,0.00,VWS V12.07,2014-01-07 09:19:00,
2014-01-07 03:25:00,-6.9,-12.2,30.55,South,188,0.0,5.0,77,0.00,,SKC,0.00,VWS V12.07,2014-01-07 09:25:00,
2014-01-07 03:31:00,-6.7,-12.3,30.54,SSW,204,0.0,5.0,76,0.00,,SKC,0.00,VWS V12.07,2014-01-07 09:31:00,
2014-01-07 03:37:00,-6.7,-12.3,30.53,South,181,0.0,1.0,76,0.00,,SKC,0.00,VWS V12.07,2014-01-07 09:37:00,
2014-01-07 03:43:00,-6.8,-12.4,30.51,SSW,204,0.0,1.0,76,0.00,,SKC,0.00,VWS V12.07,2014-01-07 09:43:00,
2014-01-07 03:49:00,-6.9,-12.5,30.51,SSW,200,0.0,1.0,76,0.00,,SKC,0.00,VWS V12.07,2014-01-07 09:49:00,
2014-01-07 03:55:00,-7.2,-12.8,30.51,SSW,201,0.0,1.0,76,0.00,,SKC,0.00,VWS V12.07,2014-01-07 09:55:00,
2014-01-07 04:00:00,-7.5,-12.8,30.51,SSW,194,0.0,1.0,77,0.00,,SKC,0.00,VWS V12.07,2014-01-07 10:00:00,
2014-01-07 04:06:00,-7.7,-13.0,30.50,SW,218,0.0,1.0,77,0.00,,SKC,0.00,VWS V12.07,2014-01-07 10:06:00,
2014-01-07 04:12:00,-7.6,-12.6,30.50,SW,221,0.0,4.0,78,0.00,,SKC,0.00,VWS V12.07,2014-01-07 10:12:00,
2014-01-07 04:18:00,-7.5,-12.3,30.50,South,174,1.0,4.0,79,0.00,,SKC,0.00,VWS V12.07,2014-01-07 10:18:00,
2014-01-07 04:24:00,-7.3,-12.3,30.50,SW,224,0.0,4.0,78,0.00,,SKC,0.00,VWS V12.07,2014-01-07 10:24:00,
2014-01-07 04:30:00,-7.3,-12.3,30.50,SSW,207,0.0,4.0,78,0.00,,SKC,0.00,VWS V12.07,2014-01-07 10:30:00,
2014-01-07 04:36:00,-7.3,-12.3,30.50,West,265,0.0,2.0,78,0.00,,SKC,0.00,VWS V12.07,2014-01-07 10:36:00,
2014-01-07 04:42:00,-7.1,-11.9,30.50,SSE,161,0.0,4.0,79,0.00,,SKC,0.00,VWS V12.07,2014-01-07 10:42:00,
2014-01-07 04:48:00,-7.0,-12.0,30.50,SSE,160,0.0,4.0,78,0.00,,SKC,0.00,VWS V12.07,2014-01-07 10:48:00,
2014-01-07 04:54:00,-6.8,-11.6,30.50,SW,224,1.0,4.0,79,0.00,,SKC,0.00,VWS V12.07,2014-01-07 10:54:00,
2014-01-07 05:00:00,-6.6,-11.6,30.49,SE,135,0.0,4.0,78,0.00,,SKC,0.00,VWS V12.07,2014-01-07 11:00:00,
2014-01-07 05:06:00,-6.6,-11.6,30.49,SW,224,0.0,1.0,78,0.00,,SKC,0.00,VWS V12.07,2014-01-07 11:06:00,
2014-01-07 05:12:00,-6.6,-11.6,30.49,SE,139,0.0,2.0,78,0.00,,SKC,0.00,VWS V12.07,2014-01-07 11:12:00,
2014-01-07 05:18:00,-6.7,-11.8,30.50,South,181,0.0,3.0,78,0.00,,SKC,0.00,VWS V12.07,2014-01-07 11:18:00,
2014-01-07 05:24:00,-6.7,-11.8,30.50,SSE,158,0.0,3.0,78,0.00,,SKC,0.00,VWS V12.07,2014-01-07 11:24:00,
2014-01-07 05:30:00,-6.6,-11.6,30.49,South,183,2.0,3.0,78,0.00,,SKC,0.00,VWS V12.07,2014-01-07 11:30:00,
2014-01-07 05:36:00,-6.4,-11.4,30.49,SSW,193,0.0,2.0,78,0.00,,SKC,0.00,VWS V12.07,2014-01-07 11:36:00,
2014-01-07 05:42:00,-6.5,-11.6,30.49,SSW,210,0.0,2.0,78,0.00,,SKC,0.00,VWS V12.07,2014-01-07 11:42:00,
2014-01-07 05:48:00,-6.8,-11.8,30.49,SSE,158,0.0,2.0,78,0.00,,SKC,0.00,VWS V12.07,2014-01-07 11:48:00,
2014-01-07 05:54:00,-6.8,-11.8,30.49,SSE,153,0.0,2.0,78,0.00,,SKC,0.00,VWS V12.07,2014-01-07 11:54:00,
2014-01-07 06:00:00,-6.5,-11.3,30.49,SSE,152,0.0,2.0,79,0.00,,SKC,0.00,VWS V12.07,2014-01-07 12:00:00,
2014-01-07 06:06:00,-6.4,-11.4,30.48,SSE,148,0.0,2.0,78,0.00,,SKC,0.00,VWS V12.07,2014-01-07 12:06:00,
2014-01-07 06:12:00,-6.3,-11.4,30.49,SSE,147,0.0,2.0,78,0.00,,SKC,0.00,VWS V12.07,2014-01-07 12:12:00,
2014-01-07 06:18:00,-6.3,-11.4,30.49,SE,140,0.0,2.0,78,0.00,,SKC,0.00,VWS V12.07,2014-01-07 12:18:00,
2014-01-07 06:24:00,-6.4,-11.4,30.49,SE,136,0.0,2.0,78,0.00,,SKC,0.00,VWS V12.07,2014-01-07 12:24:00,
2014-01-07 06:30:00,-6.5,-11.6,30.50,SSE,160,0.0,2.0,78,0.00,,SKC,0.00,VWS V12.07,2014-01-07 12:30:00,
2014-01-07 06:36:00,-6.6,-11.6,30.50,ESE,111,0.0,0.0,78,0.00,,SKC,0.00,VWS V12.07,2014-01-07 12:36:00,
2014-01-07 06:42:00,-6.7,-11.8,30.50,SSE,160,0.0,0.0,78,0.00,,SKC,0.00,VWS V12.07,2014-01-07 12:42:00,
2014-01-07 06:48:00,-6.7,-11.8,30.50,SSW,194,0.0,0.0,78,0.00,,SKC,0.00,VWS V12.07,2014-01-07 12:48:00,
2014-01-07 06:54:00,-6.8,-11.8,30.50,South,172,2.0,2.0,78,0.00,,SKC,0.00,VWS V12.07,2014-01-07 12:54:00,
2014-01-07 07:00:00,-6.7,-11.8,30.50,South,188,0.0,4.0,78,0.00,,SKC,0.00,VWS V12.07,2014-01-07 13:00:00,
2014-01-07 07:06:00,-6.6,-11.4,30.50,SSE,156,0.0,3.0,79,0.00,,SKC,0.00,VWS V12.07,2014-01-07 13:06:00,
2014-01-07 07:12:00,-6.3,-11.1,30.49,SSW,207,0.0,3.0,79,0.00,,SKC,0.00,VWS V12.07,2014-01-07 13:12:00,
2014-01-07 07:18:00,-5.9,-10.7,30.49,SW,214,3.0,3.0,79,0.00,,SKC,0.00,VWS V12.07,2014-01-07 13:18:00,
2014-01-07 07:24:00,-5.4,-10.2,30.48,South,181,0.0,4.0,79,0.00,,SKC,0.00,VWS V12.07,2014-01-07 13:24:00,
2014-01-07 07:30:00,-4.8,-9.6,30.48,South,188,0.0,4.0,79,0.00,,SKC,0.00,VWS V12.07,2014-01-07 13:30:00,
2014-01-07 07:36:00,-4.2,-9.1,30.48,SW,231,0.0,3.0,79,0.00,,SKC,0.00,VWS V12.07,2014-01-07 13:36:00,
2014-01-07 07:42:00,-3.6,-8.7,30.48,South,188,0.0,3.0,78,0.00,,SKC,0.00,VWS V12.07,2014-01-07 13:42:00,
2014-01-07 07:48:00,-3.2,-8.3,30.48,SE,138,1.0,3.0,78,0.00,,SKC,0.00,VWS V12.07,2014-01-07 13:48:00,
2014-01-07 07:54:00,-2.7,-8.1,30.48,South,176,1.0,3.0,77,0.00,,SKC,0.00,VWS V12.07,2014-01-07 13:54:00,
2014-01-07 08:00:00,-2.3,-7.7,30.47,SE,146,0.0,4.0,77,0.00,,SKC,0.00,VWS V12.07,2014-01-07 14:00:00,
2014-01-07 08:06:00,-1.9,-7.3,30.47,SSE,162,0.0,3.0,77,0.00,,SKC,0.00,VWS V12.07,2014-01-07 14:06:00,
2014-01-07 08:12:00,-1.4,-6.8,30.47,SSE,159,0.0,4.0,77,0.00,,SKC,0.00,VWS V12.07,2014-01-07 14:12:00,
2014-01-07 08:18:00,-0.7,-6.2,30.48,South,174,0.0,4.0,77,0.00,,SKC,0.00,VWS V12.07,2014-01-07 14:18:00,
2014-01-07 08:24:00,-0.1,-5.8,30.48,South,169,2.0,5.0,76,0.00,,SKC,0.00,VWS V12.07,2014-01-07 14:24:00,
2014-01-07 08:30:00,0.6,-5.2,30.48,SW,218,0.0,5.0,76,0.00,,SKC,0.00,VWS V12.07,2014-01-07 14:30:00,
2014-01-07 08:36:00,1.2,-4.9,30.47,SSE,152,0.0,5.0,75,0.00,,SKC,0.00,VWS V12.07,2014-01-07 14:36:00,
2014-01-07 08:42:00,1.6,-4.8,30.47,SSW,203,0.0,7.0,74,0.00,,SKC,0.00,VWS V12.07,2014-01-07 14:42:00,
2014-01-07 08:48:00,2.2,-4.2,30.47,SE,129,1.0,7.0,74,0.00,,SKC,0.00,VWS V12.07,2014-01-07 14:48:00,
2014-01-07 08:54:00,2.8,-3.6,30.47,SSE,160,1.0,7.0,74,0.00,,SKC,0.00,VWS V12.07,2014-01-07 14:54:00,
2014-01-07 09:00:00,3.4,-3.3,30.47,SSW,208,0.0,7.0,73,0.00,,SKC,0.00,VWS V12.07,2014-01-07 15:00:00,
2014-01-07 09:06:00,4.0,-3.0,30.47,SSE,148,2.0,5.0,72,0.00,,SKC,0.00,VWS V12.07,2014-01-07 15:06:00,
2014-01-07 09:12:00,4.3,-2.7,30.47,SSE,159,0.0,5.0,72,0.00,,SKC,0.00,VWS V12.07,2014-01-07 15:12:00,
2014-01-07 09:18:00,4.9,-2.1,30.47,SSE,149,4.0,6.0,72,0.00,,SKC,0.00,VWS V12.07,2014-01-07 15:18:00,
2014-01-07 09:24:00,5.3,-2.0,30.47,ESE,113,1.0,6.0,71,0.00,,SKC,0.00,VWS V12.07,2014-01-07 15:24:00,
2014-01-07 09:30:00,5.8,-1.6,30.47,ENE,71,0.0,6.0,71,0.00,,SKC,0.00,VWS V12.07,2014-01-07 15:30:00,
2014-01-07 09:36:00,6.3,-1.4,30.45,South,170,4.0,7.0,70,0.00,,SKC,0.00,VWS V12.07,2014-01-07 15:36:00,
2014-01-07 09:42:00,6.9,-0.8,30.45,SE,139,3.0,7.0,70,0.00,,SKC,0.00,VWS V12.07,2014-01-07 15:42:00,
2014-01-07 09:48:00,7.4,-0.6,30.45,SSE,167,4.0,7.0,69,0.00,,SKC,0.00,VWS V12.07,2014-01-07 15:48:00,
2014-01-07 09:54:00,7.7,-0.6,30.44,South,173,6.0,7.0,68,0.00,,SKC,0.00,VWS V12.07,2014-01-07 15:54:00,
2014-01-07 10:00:00,8.1,-0.3,30.44,ESE,113,4.0,7.0,68,0.00,,SKC,0.00,VWS V12.07,2014-01-07 16:00:00,
2014-01-07 10:06:00,8.5,-0.2,30.44,SE,146,1.0,6.0,67,0.00,,SKC,0.00,VWS V12.07,2014-01-07 16:06:00,
2014-01-07 10:12:00,8.9,0.2,30.43,SE,146,5.0,7.0,67,0.00,,SKC,0.00,VWS V12.07,2014-01-07 16:12:00,
2014-01-07 10:18:00,9.1,0.1,30.42,ESE,115,1.0,8.0,66,0.00,,SKC,0.00,VWS V12.07,2014-01-07 16:18:00,
2014-01-07 10:24:00,9.6,0.5,30.42,SW,221,1.0,8.0,66,0.00,,SKC,0.00,VWS V12.07,2014-01-07 16:24:00,
2014-01-07 10:30:00,10.0,0.6,30.42,East,98,4.0,8.0,65,0.00,,SKC,0.00,VWS V12.07,2014-01-07 16:30:00,
2014-01-07 10:36:00,10.4,0.6,30.42,SW,214,1.0,7.0,64,0.00,,SKC,0.00,VWS V12.07,2014-01-07 16:36:00,
2014-01-07 10:42:00,10.9,1.1,30.41,SE,138,1.0,7.0,64,0.00,,SKC,0.00,VWS V12.07,2014-01-07 16:42:00,
2014-01-07 10:48:00,11.6,1.8,30.41,South,191,2.0,8.0,64,0.00,,SKC,0.00,VWS V12.07,2014-01-07 16:48:00,
2014-01-07 10:54:00,11.9,1.0,30.40,ESE,122,1.0,8.0,61,0.00,,SKC,0.00,VWS V12.07,2014-01-07 16:54:00,
2014-01-07 11:00:00,12.5,1.6,30.40,SE,141,5.0,8.0,61,0.00,,SKC,0.00,VWS V12.07,2014-01-07 17:00:00,
2014-01-07 11:06:00,13.0,2.1,30.39,South,173,3.0,6.0,61,0.00,,SKC,0.00,VWS V12.07,2014-01-07 17:06:00,
2014-01-07 11:12:00,13.2,1.9,30.38,SE,136,4.0,8.0,60,0.00,,SKC,0.00,VWS V12.07,2014-01-07 17:12:00,
2014-01-07 11:18:00,13.3,2.4,30.37,ESE,114,8.0,8.0,61,0.00,,SKC,0.00,VWS V12.07,2014-01-07 17:18:00,
2014-01-07 11:24:00,13.9,2.6,30.36,SE,136,5.0,8.0,60,0.00,,SKC,0.00,VWS V12.07,2014-01-07 17:24:00,
2014-01-07 11:30:00,14.0,2.0,30.34,SSW,200,3.0,12.0,58,0.00,,SKC,0.00,VWS V12.07,2014-01-07 17:30:00,
2014-01-07 11:36:00,14.3,2.6,30.33,ESE,102,9.0,10.0,59,0.00,,SKC,0.00,VWS V12.07,2014-01-07 17:36:00,
2014-01-07 11:42:00,14.4,2.7,30.33,SE,131,2.0,12.0,59,0.00,,SKC,0.00,VWS V12.07,2014-01-07 17:42:00,
2014-01-07 11:48:00,14.7,2.2,30.32,South,181,4.0,12.0,57,0.00,,SKC,0.00,VWS V12.07,2014-01-07 17:48:00,
2014-01-07 11:54:00,15.1,2.6,30.31,South,172,1.0,12.0,57,0.00,,SKC,0.00,VWS V12.07,2014-01-07 17:54:00,
2014-01-07 12:00:00,15.1,2.6,30.29,SE,134,4.0,12.0,57,0.00,,SKC,0.00,VWS V12.07,2014-01-07 18:00:00,
2014-01-07 12:06:00,15.2,2.7,30.29,East,99,5.0,14.0,57,0.00,,SKC,0.00,VWS V12.07,2014-01-07 18:06:00,
2014-01-07 12:12:00,15.8,3.3,30.28,SE,146,2.0,14.0,57,0.00,,SKC,0.00,VWS V12.07,2014-01-07 18:12:00,
2014-01-07 12:18:00,16.0,3.8,30.28,SSE,154,4.0,14.0,58,0.00,,SKC,0.00,VWS V12.07,2014-01-07 18:18:00,
2014-01-07 12:24:00,15.9,3.4,30.27,South,183,6.0,14.0,57,0.00,,SKC,0.00,VWS V12.07,2014-01-07 18:24:00,
2014-01-07 12:30:00,15.8,3.7,30.27,SSW,200,6.0,14.0,58,0.00,,SKC,0.00,VWS V12.07,2014-01-07 18:30:00,
2014-01-07 12:36:00,16.2,4.0,30.28,SE,129,2.0,9.0,58,0.00,,SKC,0.00,VWS V12.07,2014-01-07 18:36:00,
2014-01-07 12:42:00,16.7,4.1,30.28,SSE,165,4.0,10.0,57,0.00,,SKC,0.00,VWS V12.07,2014-01-07 18:42:00,
2014-01-07 12:48:00,17.7,5.4,30.28,SSW,198,5.0,10.0,58,0.00,,SKC,0.00,VWS V12.07,2014-01-07 18:48:00,
2014-01-07 12:54:00,18.5,5.4,30.28,SE,142,3.0,10.0,56,0.00,,SKC,0.00,VWS V12.07,2014-01-07 18:54:00,
2014-01-07 13:00:00,19.1,6.0,30.28,SSW,204,2.0,10.0,56,0.00,,SKC,0.00,VWS V12.07,2014-01-07 19:00:00,
2014-01-07 13:06:00,19.7,6.9,30.27,South,176,6.0,8.0,57,0.00,,SKC,0.00,VWS V12.07,2014-01-07 19:06:00,
2014-01-07 13:12:00,20.4,7.2,30.27,ESE,115,4.0,14.0,56,0.00,,SKC,0.00,VWS V12.07,2014-01-07 19:12:00,
2014-01-07 13:18:00,20.6,7.8,30.27,SE,135,4.0,14.0,57,0.00,,SKC,0.00,VWS V12.07,2014-01-07 19:18:00,
2014-01-07 13:24:00,20.9,7.7,30.27,SSW,204,4.0,14.0,56,0.00,,SKC,0.00,VWS V12.07,2014-01-07 19:24:00,
2014-01-07 13:30:00,20.9,7.7,30.26,South,181,1.0,14.0,56,0.00,,SKC,0.00,VWS V12.07,2014-01-07 19:30:00,
2014-01-07 13:36:00,21.2,8.4,30.26,SW,221,3.0,9.0,57,0.00,,SKC,0.00,VWS V12.07,2014-01-07 19:36:00,
2014-01-07 13:42:00,21.4,8.1,30.27,WSW,244,1.0,9.0,56,0.00,,SKC,0.00,VWS V12.07,2014-01-07 19:42:00,
2014-01-07 13:48:00,21.8,8.5,30.27,ESE,107,1.0,9.0,56,0.00,,SKC,0.00,VWS V12.07,2014-01-07 19:48:00,
2014-01-07 13:54:00,21.9,8.2,30.27,West,276,3.0,9.0,55,0.00,,SKC,0.00,VWS V12.07,2014-01-07 19:54:00,
2014-01-07 14:01:00,22.0,7.9,30.27,NE,46,0.0,9.0,54,0.00,,SKC,0.00,VWS V12.07,2014-01-07 20:01:00,
2014-01-07 14:06:00,22.1,8.0,30.27,South,186,5.0,7.0,54,0.00,,SKC,0.00,VWS V12.07,2014-01-07 20:06:00,
2014-01-07 14:12:00,22.3,8.2,30.27,SE,143,3.0,8.0,54,0.00,,SKC,0.00,VWS V12.07,2014-01-07 20:12:00,
2014-01-07 14:18:00,22.3,8.2,30.27,SSE,167,6.0,8.0,54,0.00,,SKC,0.00,VWS V12.07,2014-01-07 20:18:00,
2014-01-07 14:24:00,22.3,8.6,30.27,SSW,212,3.0,9.0,55,0.00,,SKC,0.00,VWS V12.07,2014-01-07 20:24:00,
2014-01-07 14:30:00,22.5,8.4,30.27,SSW,207,2.0,9.0,54,0.00,,SKC,0.00,VWS V12.07,2014-01-07 20:30:00,
2014-01-07 14:37:00,22.8,9.1,30.27,WSW,248,0.0,6.0,55,0.00,,SKC,0.00,VWS V12.07,2014-01-07 20:37:00,
2014-01-07 14:42:00,22.9,9.2,30.28,ESE,118,0.0,6.0,55,0.00,,SKC,0.00,VWS V12.07,2014-01-07 20:42:00,
2014-01-07 14:48:00,23.1,8.9,30.27,West,264,3.0,6.0,54,0.00,,SKC,0.00,VWS V12.07,2014-01-07 20:48:00,
2014-01-07 14:54:00,23.3,9.1,30.27,SSW,195,3.0,6.0,54,0.00,,SKC,0.00,VWS V12.07,2014-01-07 20:54:00,
2014-01-07 15:00:00,23.6,9.0,30.27,SSE,150,2.0,6.0,53,0.00,,SKC,0.00,VWS V12.07,2014-01-07 21:00:00,
2014-01-07 15:06:00,23.7,9.5,30.27,SW,217,3.0,5.0,54,0.00,,SKC,0.00,VWS V12.07,2014-01-07 21:06:00,
2014-01-07 15:12:00,23.6,9.0,30.27,SSE,162,0.0,5.0,53,0.00,,SKC,0.00,VWS V12.07,2014-01-07 21:12:00,
2014-01-07 15:18:00,23.6,9.8,30.27,SSW,201,5.0,5.0,55,0.00,,SKC,0.00,VWS V12.07,2014-01-07 21:18:00,
2014-01-07 15:24:00,23.4,9.6,30.27,SSE,150,2.0,8.0,55,0.00,,SKC,0.00,VWS V12.07,2014-01-07 21:24:00,
2014-01-07 15:31:00,23.2,9.4,30.27,SSE,150,0.0,8.0,55,0.00,,SKC,0.00,VWS V12.07,2014-01-07 21:31:00,
2014-01-07 15:37:00,23.1,9.4,30.27,SSE,152,1.0,7.0,55,0.00,,SKC,0.00,VWS V12.07,2014-01-07 21:37:00,
2014-01-07 15:42:00,22.9,9.6,30.27,SSE,159,6.0,7.0,56,0.00,,SKC,0.00,VWS V12.07,2014-01-07 21:42:00,
2014-01-07 15:48:00,22.7,9.8,30.27,East,94,1.0,7.0,57,0.00,,SKC,0.00,VWS V12.07,2014-01-07 21:48:00,
2014-01-07 15:54:00,22.5,9.2,30.27,SSE,165,3.0,8.0,56,0.00,,SKC,0.00,VWS V12.07,2014-01-07 21:54:00,
2014-01-07 16:00:00,22.3,9.4,30.27,SSE,160,0.0,8.0,57,0.00,,SKC,0.00,VWS V12.07,2014-01-07 22:00:00,
2014-01-07 16:06:00,22.3,9.4,30.27,ESE,117,3.0,4.0,57,0.00,,SKC,0.00,VWS V12.07,2014-01-07 22:06:00,
2014-01-07 16:13:00,22.1,9.2,30.28,SE,135,4.0,7.0,57,0.00,,SKC,0.00,VWS V12.07,2014-01-07 22:13:00,
2014-01-07 16:19:00,22.1,9.2,30.27,ESE,122,2.0,7.0,57,0.00,,SKC,0.00,VWS V12.07,2014-01-07 22:19:00,
2014-01-07 16:25:00,21.9,9.0,30.27,SE,143,0.0,7.0,57,0.00,,SKC,0.00,VWS V12.07,2014-01-07 22:25:00,
2014-01-07 16:31:00,21.8,9.3,30.27,SSE,158,2.0,7.0,58,0.00,,SKC,0.00,VWS V12.07,2014-01-07 22:31:00,
2014-01-07 16:36:00,21.7,9.2,30.28,SE,144,2.0,2.0,58,0.00,,SKC,0.00,VWS V12.07,2014-01-07 22:36:00,
2014-01-07 16:42:00,21.5,9.0,30.28,SE,134,0.0,2.0,58,0.00,,SKC,0.00,VWS V12.07,2014-01-07 22:42:00,
2014-01-07 16:48:00,21.0,8.6,30.28,ESE,111,1.0,2.0,58,0.00,,SKC,0.00,VWS V12.07,2014-01-07 22:48:00,
2014-01-07 16:54:00,20.6,8.2,30.28,SE,141,0.0,2.0,58,0.00,,SKC,0.00,VWS V12.07,2014-01-07 22:54:00,
2014-01-07 17:00:00,20.2,8.2,30.28,SE,139,0.0,2.0,59,0.00,,SKC,0.00,VWS V12.07,2014-01-07 23:00:00,
2014-01-07 17:06:00,20.0,8.0,30.28,SE,133,0.0,0.0,59,0.00,,SKC,0.00,VWS V12.07,2014-01-07 23:06:00,
2014-01-07 17:12:00,19.6,8.0,30.28,SE,127,0.0,0.0,60,0.00,,SKC,0.00,VWS V12.07,2014-01-07 23:12:00,
2014-01-07 17:18:00,19.5,7.9,30.28,SE,128,0.0,0.0,60,0.00,,SKC,0.00,VWS V12.07,2014-01-07 23:18:00,
2014-01-07 17:24:00,19.5,7.9,30.29,ESE,115,1.0,2.0,60,0.00,,SKC,0.00,VWS V12.07,2014-01-07 23:24:00,
2014-01-07 17:30:00,19.1,7.5,30.29,ESE,113,1.0,2.0,60,0.00,,SKC,0.00,VWS V12.07,2014-01-07 23:30:00,
2014-01-07 17:36:00,19.0,7.4,30.28,ESE,117,1.0,3.0,60,0.00,,SKC,0.00,VWS V12.07,2014-01-07 23:36:00,
2014-01-07 17:42:00,18.9,7.7,30.28,ESE,115,2.0,3.0,61,0.00,,SKC,0.00,VWS V12.07,2014-01-07 23:42:00,
2014-01-07 17:48:00,18.8,7.6,30.28,ESE,103,2.0,3.0,61,0.00,,SKC,0.00,VWS V12.07,2014-01-07 23:48:00,
2014-01-07 17:54:00,18.6,7.4,30.29,East,100,0.0,3.0,61,0.00,,SKC,0.00,VWS V12.07,2014-01-07 23:54:00,
2014-01-07 18:00:00,18.2,7.4,30.29,East,101,0.0,3.0,62,0.00,,SKC,0.00,VWS V12.07,2014-01-08 00:00:00,
2014-01-07 19:02:00,16.0,6.3,30.31,ESE,102,0.0,2.0,65,0.00,,SKC,0.00,VWS V12.07,2014-01-08 01:02:00,
2014-01-07 19:10:00,15.8,6.5,30.31,ESE,123,0.0,3.0,66,0.00,,SKC,0.00,VWS V12.07,2014-01-08 01:10:00,
2014-01-07 19:16:00,15.7,6.4,30.31,ESE,123,4.0,4.0,66,0.00,,SKC,0.00,VWS V12.07,2014-01-08 01:16:00,
2014-01-07 19:22:00,15.6,6.3,30.31,ESE,110,2.0,4.0,66,0.00,,SKC,0.00,VWS V12.07,2014-01-08 01:22:00,
2014-01-07 19:28:00,15.5,6.2,30.31,ESE,123,3.0,4.0,66,0.00,,SKC,0.00,VWS V12.07,2014-01-08 01:28:00,
2014-01-07 19:35:00,15.4,6.1,30.31,SE,129,2.0,5.0,66,0.00,,SKC,0.00,VWS V12.07,2014-01-08 01:35:00,
2014-01-07 19:40:00,15.2,6.2,30.31,SE,131,2.0,5.0,67,0.00,,SKC,0.00,VWS V12.07,2014-01-08 01:40:00,
2014-01-07 19:47:00,15.1,6.1,30.31,ESE,119,3.0,5.0,67,0.00,,SKC,0.00,VWS V12.07,2014-01-08 01:47:00,
2014-01-07 19:53:00,14.9,5.9,30.30,ESE,119,2.0,5.0,67,0.00,,SKC,0.00,VWS V12.07,2014-01-08 01:53:00,
2014-01-07 19:58:00,14.9,6.3,30.31,ESE,105,2.0,5.0,68,0.00,,SKC,0.00,VWS V12.07,2014-01-08 01:58:00,
2014-01-07 20:04:00,14.9,6.3,30.31,SE,140,2.0,3.0,68,0.00,,SKC,0.00,VWS V12.07,2014-01-08 02:04:00,
2014-01-07 20:11:00,14.8,6.2,30.32,SSE,158,0.0,3.0,68,0.00,,SKC,0.00,VWS V12.07,2014-01-08 02:11:00,
2014-01-07 20:17:00,14.8,6.2,30.32,SE,138,1.0,3.0,68,0.00,,SKC,0.00,VWS V12.07,2014-01-08 02:17:00,
2014-01-07 20:23:00,14.7,6.1,30.32,SE,132,0.0,3.0,68,0.00,,SKC,0.00,VWS V12.07,2014-01-08 02:23:00,
2014-01-07 20:30:00,14.6,6.0,30.32,SE,136,0.0,3.0,68,0.00,,SKC,0.00,VWS V12.07,2014-01-08 02:30:00,
2014-01-07 20:35:00,14.3,5.7,30.32,SE,135,0.0,0.0,68,0.00,,SKC,0.00,VWS V12.07,2014-01-08 02:35:00,
2014-01-07 20:42:00,14.3,5.7,30.31,East,97,0.0,1.0,68,0.00,,SKC,0.00,VWS V12.07,2014-01-08 02:42:00,
2014-01-07 20:47:00,14.1,5.8,30.32,East,101,0.0,1.0,69,0.00,,SKC,0.00,VWS V12.07,2014-01-08 02:47:00,
2014-01-07 20:53:00,14.1,5.8,30.32,ESE,102,0.0,1.0,69,0.00,,SKC,0.00,VWS V12.07,2014-01-08 02:53:00,
2014-01-07 20:59:00,14.1,5.8,30.32,East,101,0.0,1.0,69,0.00,,SKC,0.00,VWS V12.07,2014-01-08 02:59:00,
2014-01-07 21:06:00,13.9,5.6,30.32,ESE,102,0.0,0.0,69,0.00,,SKC,0.00,VWS V12.07,2014-01-08 03:06:00,
2014-01-07 21:11:00,13.7,5.8,30.32,East,101,0.0,0.0,70,0.00,,SKC,0.00,VWS V12.07,2014-01-08 03:11:00,
2014-01-07 21:17:00,13.7,5.8,30.32,East,101,0.0,0.0,70,0.00,,SKC,0.00,VWS V12.07,2014-01-08 03:17:00,
2014-01-07 21:23:00,13.2,5.3,30.32,East,101,0.0,0.0,70,0.00,,SKC,0.00,VWS V12.07,2014-01-08 03:23:00,
2014-01-07 21:30:00,12.5,4.9,30.33,East,101,0.0,0.0,71,0.00,,SKC,0.00,VWS V12.07,2014-01-08 03:30:00,
2014-01-07 21:35:00,12.8,5.8,30.32,ESE,102,0.0,0.0,73,0.00,,SKC,0.00,VWS V12.07,2014-01-08 03:35:00,
2014-01-07 21:42:00,13.2,5.6,30.33,East,99,0.0,0.0,71,0.00,,SKC,0.00,VWS V12.07,2014-01-08 03:42:00,
2014-01-07 21:48:00,13.2,5.6,30.33,ENE,72,0.0,0.0,71,0.00,,SKC,0.00,VWS V12.07,2014-01-08 03:48:00,
2014-01-07 21:53:00,13.1,5.8,30.32,ENE,72,0.0,0.0,72,0.00,,SKC,0.00,VWS V12.07,2014-01-08 03:53:00,
2014-01-07 22:00:00,13.2,5.9,30.33,NE,54,0.0,0.0,72,0.00,,SKC,0.00,VWS V12.07,2014-01-08 04:00:00,
2014-01-07 22:06:00,13.2,6.2,30.33,NE,54,0.0,0.0,73,0.00,,SKC,0.00,VWS V12.07,2014-01-08 04:06:00,
2014-01-07 22:11:00,13.0,6.0,30.33,NE,54,0.0,0.0,73,0.00,,SKC,0.00,VWS V12.07,2014-01-08 04:11:00,
2014-01-07 22:18:00,13.0,6.3,30.33,NE,48,1.0,2.0,74,0.00,,SKC,0.00,VWS V12.07,2014-01-08 04:18:00,
2014-01-07 22:24:00,12.8,6.4,30.33,NNE,27,1.0,2.0,75,0.00,,SKC,0.00,VWS V12.07,2014-01-08 04:24:00,
2014-01-07 22:29:00,12.5,6.1,30.34,NNE,16,1.0,2.0,75,0.00,,SKC,0.00,VWS V12.07,2014-01-08 04:29:00,
2014-01-07 22:35:00,12.2,5.8,30.34,North,8,0.0,1.0,75,0.00,,SKC,0.00,VWS V12.07,2014-01-08 04:35:00,
2014-01-07 22:41:00,11.9,5.8,30.34,North,8,0.0,1.0,76,0.00,,SKC,0.00,VWS V12.07,2014-01-08 04:41:00,
2014-01-07 22:48:00,11.8,5.7,30.34,North,8,0.0,1.0,76,0.00,,SKC,0.00,VWS V12.07,2014-01-08 04:48:00,
2014-01-07 22:53:00,11.7,5.6,30.34,North,8,0.0,1.0,76,0.00,,SKC,0.00,VWS V12.07,2014-01-08 04:53:00,
2014-01-07 22:59:00,11.5,5.7,30.34,North,8,0.0,1.0,77,0.00,,SKC,0.00,VWS V12.07,2014-01-08 04:59:00,
2014-01-07 23:02:00,11.6,5.8,30.34,North,8,0.0,1.0,77,0.00,,SKC,0.00,VWS V12.07,2014-01-08 05:02:00,
2014-01-07 23:05:00,11.6,5.8,30.34,North,9,0.0,2.0,77,0.00,,SKC,0.00,VWS V12.07,2014-01-08 05:05:00,
2014-01-07 23:08:00,11.5,5.4,30.35,North,9,0.0,2.0,76,0.00,,SKC,0.00,VWS V12.07,2014-01-08 05:08:00,
2014-01-07 23:14:00,11.4,5.3,30.35,North,9,0.0,2.0,76,0.00,,SKC,0.00,VWS V12.07,2014-01-08 05:14:00,
2014-01-07 23:17:00,11.3,5.5,30.35,North,9,0.0,2.0,77,0.00,,SKC,0.00,VWS V12.07,2014-01-08 05:17:00,
2014-01-07 23:20:00,11.3,5.5,30.35,North,9,0.0,2.0,77,0.00,,SKC,0.00,VWS V12.07,2014-01-08 05:20:00,
2014-01-07 23:26:00,11.3,5.5,30.35,North,9,0.0,2.0,77,0.00,,SKC,0.00,VWS V12.07,2014-01-08 05:26:00,
2014-01-07 23:32:00,11.5,5.7,30.35,North,9,0.0,0.0,77,0.00,,SKC,0.00,VWS V12.07,2014-01-08 05:32:00,
2014-01-07 23:38:00,11.6,5.5,30.34,North,9,0.0,0.0,76,0.00,,SKC,0.00,VWS V12.07,2014-01-08 05:38:00,
2014-01-07 23:45:00,11.3,5.2,30.34,North,359,0.0,0.0,76,0.00,,SKC,0.00,VWS V12.07,2014-01-08 05:45:00,
2014-01-07 23:50:00,11.1,5.0,30.34,NNE,22,2.0,2.0,76,0.00,,SKC,0.00,VWS V12.07,2014-01-08 05:50:00,
2014-01-07 23:57:00,11.2,5.1,30.34,NNE,25,3.0,3.0,76,0.00,,SKC,0.00,VWS V12.07,2014-01-08 05:57:00,